User: anonymous   Login
Location: Allen Lane School
(37.8198°N, 89.7382°W)
Time: 13:41:39
(UTC+00:00)
Language:

Lacrosse 5 rocket - Orbit

View from above orbital plane
View from above orbital plane
View from above satellite
View from above satellite

Ground track
Ground track

The orbit data is extracted from the following two-line orbital elements,

1 28647U 05016B   22145.78251650  .00002553  00000-0  15844-3 0  9997
2 28647  56.9967 241.6951 0120063 343.0338  16.6700 15.07619371166558
Epoch (UTC): 25 May 2022 18:46:49
Eccentricity: 0.0120063
inclination: 56.9967°
perigee height: 460 km
apogee height: 626 km
right ascension of ascending node: 241.6951°
argument of perigee: 343.0338°
revolutions per day: 15.07619371
mean anomaly at epoch: 16.6700°
orbit number at epoch: 16655

The dashed part of the orbit path shows where the satellite is in the earth's shadow,  

DLR